Weather in Capri

Italy     40°33′04″N   14°14′24″E
temp.,
°C
wind,
m/s
gust,
m/s
humid.,
%
clouds,
%
prec.,
mm/h
press.,
hPa
HPBL,
m
12 august, fri
fri1223:00+24e887064 1.4 1014283
02:00+25ese446492 1.5 1013359
05:00+25ese336978 0.7 1012361
08:00+25ese44705 0.8 1012431
11:00+25se3365100 0.2 1013294
14:00+26s126186 0.2 1013332
17:00+27sw33620 0.0 1012551
20:00+27nne33560 0.0 10121120
13 august, sat
sat1323:00+26e43635 0.0 1013416
02:00+26e21580 0.0 1013397
05:00+25ne22572 0.0 1012471
08:00+25se32625 0.0 1012453
11:00+25se1162100 0.0 1013373
14:00+25ssw12615 0.0 1012336
17:00+26wsw22590 0.0 1011606
20:00+25nnw11659 0.6 1010116
14 august, sun
sun1423:00+26wnw22600 1.6 1011455
02:00+26nnw55620 1.6 1010911
05:00+26nne32590 0.0 1009732
08:00+25ese22634 0.0 1010621
11:00+26ene55530 0.0 1010754
14:00+27wsw33473 0.0 1010508
17:00+27wsw765475 0.0 1010553
20:00+27wnw225215 0.0 1009562
15 august, mon
mon1523:00+27nw22534 0.0 1010360
02:00+27wsw11530 0.0 1010365
05:00+27se11555 0.0 1009415
08:00+26ese43640 0.0 1010458
11:00+27sse34570 0.0 1010804
14:00+28s44570 0.0 1010824
17:00+28ssw225372 0.0 1010612
20:00+28sse33630 0.0 1009504
16 august, tue
tue1623:00+28sse33620 0.0 1010407
02:00+28se43630 0.0 1010534
05:00+27ese656969 0.0 1010442
08:00+27sse5569100 0.0 1011426
11:00+28sse677173 0.4 1011484
14:00+29ssw111481100 3.8 1012824
17:00+27e99775 1.7 1011334
20:00+28ese54740 1.7 1012256